Regional Weather Roundup
Issued by NWS Jackson, KY

Home | Current Version | Previous Version | Text Only | Print | Product List | Glossary On
Versions: 1 2 3 4 5 6 7 8 9 10 11 12 13 14 15 16 17 18 19 20 21 22 23 24 25 26 27 28 29 30 31 32 33 34 35 36 37 38 39 40 41 42 43 44 45 46 47 48 49 50
000
ASUS43 KJKL 221019
RWRJKL

EAST KENTUCKY HOURLY WEATHER ROUNDUP
NATIONAL WEATHER SERVICE JACKSON KY
600 AM EDT TUE JUL 22 2014

NOTE: "FAIR" INDICATES FEW OR NO CLOUDS BELOW 12,000 FEET WITH
NO SIGNIFICANT WEATHER AND/OR OBSTRUCTIONS TO VISIBILITY.

* THESE REPORTS ARE NOT UNDER NWS QUALITY CONTROL AND MAY NOT
  REPORT WEATHER SUCH AS PRECIPITATION AND FOG.

KYZ079-080-083-085-087-088-110-112-115-119-120-221100
...EASTERN KENTUCKY...

CITY           SKY/WX    TMP DP  RH WIND       PRES   REMARKS
JACKSON        CLEAR     71  66  84 SE3       30.14R
LONDON         PTCLDY    70  67  90 CALM      30.13R
SOMERSET*      CLEAR     70  70 100 CALM      30.12R
MONTICELLO*    PTCLDY    67  67 100 CALM      30.13R FOG
WILLIAMSBURG*    N/A     68  68 100 CALM      30.13R
MIDDLESBORO*   CLEAR     68  66  94 CALM      30.14R
HARLAN APT*    CLOUDY    66  66 100 MISG      30.16R VSB 3/4
HAZARD APT*    SUNNY     68  68 100 CALM      30.14R FOG
BLACK MTN*       N/A     63  63 100 CALM        N/A
PIKEVILLE APT* CLEAR     70  66  88 SE3       30.15R
BIG SANDY*     SUNNY     70  67  92 SE3       30.14R
MOREHEAD APT*    N/A     72  68  88 CALM      30.14R
ASHLAND*       CLOUDY    70  66  88 CALM      30.09R VSB 1/4
$$

KYZ035-036-041-042-044-050-067-078-099-221100
...CENTRAL KENTUCKY...

CITY           SKY/WX    TMP DP  RH WIND       PRES   REMARKS
MT STERLING*   CLEAR     68  68 100 SE3       30.13R
FLEMING/MASON* FOG       68  68 100 CALM      30.12S VSB 1
DANVILLE*      CLEAR     66  66 100 CALM      30.12R
RICHMOND*      CLEAR     68  66  94 CALM      30.10S
LEXINGTON      CLEAR     70  67  90 CALM      30.11R
FRANKFORT      CLEAR     67  65  93 CALM      30.09R
$$

KYZ091>093-OHZ055-061-077-WVZ005-015-034-035-042-221100
...SOUTHERN OHIO/WEST VIRGINIA...

CITY           SKY/WX    TMP DP  RH WIND       PRES   REMARKS
COVINGTON      CLEAR     74  67  78 N5        30.11R
COLUMBUS       CLEAR     70  65  84 CALM      30.11R
DAYTON         CLEAR     67  64  90 CALM      30.13R
WILMINGTON     CLEAR     66  63  90 CALM      30.12R
HUNTINGTON     CLEAR     67  67 100 E3        30.11R FOG
CHARLESTON     PTCLDY    68  68 100 CALM      30.12R
PINEVILLE*     CLEAR     65  65 100 MISG      30.23R FOG
BECKLEY        CLEAR     67  63  87 S3        30.21R
BLUEFIELD      PTCLDY    69  63  81 S3        30.23S
$$

VAZ002-007-008-TNZ017-027-036-066-071-221100
...SOUTHWEST VIRGINIA/EAST TENNESSEE...

CITY           SKY/WX    TMP DP  RH WIND       PRES   REMARKS
WISE*          CLEAR     64  64 100 CALM      30.23R
JONESVILLE*      N/A     64  64 100 CALM      30.17R
ABINGDON*      PTCLDY    69  66  91 E6        30.19R
BRISTOL        PTCLDY    66  63  90 CALM      30.16R
KNOXVILLE      MOCLDY    71  70  96 CALM      30.12R FOG
OAK RIDGE      CLOUDY    72  71  97 CALM      30.14R FOG
CROSSVILLE     CLEAR     65  64  97 CALM      30.17R FOG
NASHVILLE      PTCLDY    72  70  93 CALM      30.09R
$$

...KEY TO REMARKS...
VSB - VISIBILITY IN MILES
WCI - WIND CHILL INDEX
HX  - HEAT INDEX

$$



USA.gov is the U.S. government's official web portal to all federal, state and local government web resources and services.